SES-22

Last updated on Thu Oct 30 2025 00:02:52 GMT+0000 (Coordinated Universal Time)

1 52933U 22071A 25301.65865028 .00000114 00000+0 00000+0 0 9999 2 52933 0.0148 270.6466 0000949 315.8236 268.9477 1.00274842 5206
UTC large
Height (km)
Speed (km/s)
/
Latitude / Longitude
Inclination (degrees)
Orbital Period (minutes)
Azimuth
Elevation
Range (km)
Doppler Factor

Next 0 passes for location: London (51.5072 / 0.1276)

Sorry there are no passes over London.